FW5449 Weather Reports


time (UTC)temp
F
wind
direction
speed
knots
gust
knots
rain 1hr
in
rain 24hr
in
rain mn
in
humidity
%
barometer
mb
20260505231043 68 334 2.6 7.8 0.00 0.00 0.00 65 1015.0
20260505230539 68 45 2.6 6.1 0.00 0.00 0.00 65 1015.1
20260505230038 68 314 2.6 6.1 0.00 0.00 0.00 65 1015.1
20260505225537 67 307 2.6 6.1 0.00 0.00 0.00 67 1015.1
20260505225314 67 1 1.7 5.2 0.00 0.00 0.00 68 1015.1
20260505224539 66 206 1.7 4.3 0.00 0.00 0.00 68 1015.3
20260505224039 65 58 3.5 7.8 0.00 0.00 0.00 69 1015.3
20260505223536 67 34 3.5 8.7 0.00 0.00 0.00 67 1015.4
20260505223035 67 58 3.5 8.7 0.00 0.00 0.00 66 1015.3
20260505222534 67 331 4.3 10.4 0.00 0.00 0.00 71 1015.5
20260505222213 64 10 4.3 7.8 0.00 0.00 0.00 69 1015.6
20260505222108 66 298 4.3 10.4 0.00 0.00 0.00 71 1015.6
20260505221619 65 338 3.5 7.8 0.00 0.00 0.00 72 1015.7
20260505220533 65 6 3.5 7.8 0.00 0.00 0.00 70 1015.7
20260505220034 65 1 3.5 8.7 0.00 0.00 0.00 68 1015.7
20260505215535 65 13 2.6 8.7 0.00 0.00 0.00 70 1015.7
20260505215032 65 348 1.7 7.0 0.00 0.00 0.00 71 1015.7
20260505214534 65 17 1.7 7.0 0.00 0.00 0.00 68 1015.7
20260505214030 65 165 2.6 7.0 0.00 0.00 0.00 68 1015.7
20260505213536 64 358 1.7 6.1 0.00 0.00 0.00 72 1015.7
20260505212941 63 0 1.7 4.3 0.00 0.00 0.00 70 1015.8
20260505212440 64 239 2.6 7.0 0.00 0.00 0.00 70 1015.7
20260505211941 64 354 2.6 7.0 0.00 0.00 0.00 70 1015.7
20260505211438 64 7 2.6 6.1 0.00 0.00 0.00 72 1015.8
20260505210938 64 25 3.5 7.0 0.00 0.00 0.00 70 1015.8
20260505210440 64 2 3.5 7.0 0.00 0.00 0.00 73 1015.8
20260505205937 64 312 2.6 6.1 0.00 0.00 0.00 71 1015.9
20260505205438 64 6 2.6 6.1 0.00 0.00 0.00 72 1016.0
20260505204938 63 48 1.7 3.5 0.00 0.00 0.00 70 1016.0
20260505204432 62 339 1.7 3.5 0.00 0.00 0.00 71 1016.0
20260505203931 61 358 0.9 3.5 0.00 0.00 0.00 73 1016.0
20260505203431 61 327 0.9 2.6 0.00 0.00 0.00 72 1016.2
20260505202923 61 37 1.7 5.2 0.00 0.00 0.00 72 1016.2
20260505202421 62 23 2.6 6.1 0.00 0.00 0.00 72 1016.1
20260505201922 62 23 2.6 6.1 0.00 0.00 0.00 73 1016.0
20260505201421 62 10 1.7 5.2 0.00 0.00 0.00 73 1016.1
20260505200920 62 347 1.7 4.3 0.00 0.00 0.00 72 1016.1
20260505200417 61 175 2.6 4.3 0.00 0.00 0.00 73 1016.1
20260505195917 61 265 2.6 5.2 0.00 0.00 0.00 74 1016.1
20260505195638 61 239 1.7 5.2 0.00 0.00 0.00 75 1016.1
20260505194919 60 94 1.7 5.2 0.00 0.00 0.00 75 1016.1
20260505194404 60 122 0.9 5.2 0.00 0.00 0.00 74 1016.1
20260505193901 60 135 0.9 3.5 0.00 0.00 0.00 74 1016.2
20260505193842 60 138 0.9 3.5 0.00 0.00 0.00 75 1016.1
20260505192902 60 192 0.9 5.2 0.00 0.00 0.00 75 1016.1
20260505192357 60 192 1.7 5.2 0.00 0.00 0.00 77 1016.1
20260505191847 60 257 0.9 5.2 0.00 0.00 0.00 76 1016.1
20260505191342 59 160 0.9 2.6 0.00 0.00 0.00 76 1016.1
20260505190842 60 219 0.9 3.5 0.00 0.00 0.00 79 1016.0
20260505190346 60 219 1.7 3.5 0.00 0.00 0.00 77 1016.0
20260505185842 59 157 1.7 3.5 0.00 0.00 0.00 76 1016.1
20260505185546 59 200 2.6 6.1 0.00 0.00 0.00 78 1016.0
20260505185436 59 206 2.6 6.1 0.00 0.00 0.00 78 1016.0
20260505184339 59 169 1.7 3.5 0.00 0.00 0.00 77 1016.0
20260505183840 59 231 1.7 3.5 0.00 0.00 0.00 78 1016.0
20260505183559 59 231 0.9 3.5 0.00 0.00 0.00 75 1015.9
20260505182831 59 74 0.0 1.7 0.00 0.00 0.00 78 1016.0
20260505182558 58 65 0.9 2.6 0.00 0.00 0.00 77 1015.9
20260505181825 58 164 1.7 4.3 0.00 0.00 0.00 77 1015.9
20260505181322 58 223 2.6 5.2 0.00 0.00 0.00 76 1015.8
20260505181040 58 152 1.7 5.2 0.00 0.00 0.00 77 1015.8
20260505180803 58 206 1.7 3.5 0.00 0.00 0.00 77 1015.8
20260505175823 59 235 0.9 3.5 0.00 0.00 0.00 77 1015.8
20260505175545 58 260 0.9 3.5 0.00 0.00 0.00 77 1015.8
20260505174812 58 218 1.7 4.3 0.00 0.00 0.00 78 1015.8
20260505174315 58 223 1.7 5.2 0.00 0.00 0.00 76 1015.7
20260505173812 58 214 1.7 5.2 0.00 0.00 0.00 78 1015.8
20260505173310 57 137 1.7 3.5 0.00 0.00 0.00 78 1015.8
20260505172813 57 173 1.7 3.5 0.00 0.00 0.00 78 1015.8
20260505172308 58 198 0.9 3.5 0.00 0.00 0.00 77 1015.7
20260505171805 57 179 1.7 3.5 0.00 0.00 0.00 78 1015.6
20260505171303 57 147 2.6 7.0 0.00 0.00 0.00 78 1015.7
20260505170801 57 152 3.5 7.0 0.00 0.00 0.00 77 1015.7
20260505170305 58 172 1.7 7.0 0.00 0.00 0.00 78 1015.6
20260505170025 57 225 1.7 3.5 0.00 0.00 0.00 79 1015.7
20260505165301 57 178 1.7 3.5 0.00 0.00 0.00 79 1015.6
20260505164757 57 237 1.7 4.3 0.00 0.00 0.00 78 1015.6
20260505164524 57 229 1.7 4.3 0.00 0.00 0.00 79 1015.7
20260505163757 57 265 1.7 4.3 0.00 0.00 0.00 80 1015.7
20260505163519 57 182 0.9 3.5 0.00 0.00 0.00 79 1015.7
20260505162749 57 249 1.7 3.5 0.00 0.00 0.00 80 1015.7
20260505162249 57 237 1.7 3.5 0.00 0.00 0.00 80 1015.6
20260505161750 57 212 1.7 3.5 0.00 0.00 0.00 80 1015.7
20260505161253 57 247 0.9 2.6 0.00 0.00 0.00 79 1015.7
20260505160741 56 238 1.7 4.3 0.00 0.00 0.00 80 1015.7
20260505160502 56 241 2.6 4.3 0.00 0.00 0.00 80 1015.7
20260505152722 56 208 2.6 4.3 0.00 0.00 0.00 82 1015.8
20260505152216 56 228 2.6 4.3 0.00 0.00 0.00 82 1015.6
20260505151715 56 221 2.6 5.2 0.00 0.00 0.00 83 1015.7
20260505151450 55 187 2.6 5.2 0.00 0.00 0.00 83 1015.6
20260505150715 55 181 2.6 4.3 0.00 0.00 0.00 82 1015.6
20260505150433 55 204 2.6 4.3 0.00 0.00 0.00 82 1015.5
20260505140205 54 175 0.9 2.6 0.00 0.00 0.00 84 1015.3
20260505125026 54 258 1.7 2.6 0.00 0.00 0.00 85 1015.0
20260505124520 54 258 2.6 4.3 0.00 0.00 0.00 85 1014.9
20260505124017 54 254 2.6 5.2 0.00 0.00 0.00 85 1014.8
20260505123515 54 247 2.6 5.2 0.00 0.00 0.00 85 1014.9
20260505123015 53 248 2.6 5.2 0.00 0.00 0.00 85 1014.7
20260505122512 54 257 2.6 5.2 0.00 0.00 0.00 86 1014.7
20260505122012 54 293 1.7 4.3 0.00 0.00 0.00 86 1014.7
20260505121737 54 238 1.7 3.5 0.00 0.00 0.00 86 1014.7
20260505121012 54 238 1.7 3.5 0.00 0.00 0.00 86 1014.7
20260505120721 54 238 1.7 4.3 0.00 0.00 0.00 86 1014.7
20260505115950 54 232 2.6 4.3 0.00 0.00 0.00 86 1014.6
20260505115439 54 288 2.6 5.2 0.00 0.00 0.00 86 1014.7
20260505114938 53 288 2.6 5.2 0.00 0.00 0.00 87 1014.7
20260505114434 53 265 1.7 5.2 0.00 0.00 0.00 88 1014.7
20260505114154 53 244 0.9 2.6 0.00 0.00 0.00 90 1014.7
20260505113427 53 244 0.9 2.6 0.00 0.00 0.00 90 1014.8
20260505112927 54 244 1.7 4.3 0.00 0.00 0.00 88 1014.8
20260505112422 54 248 1.7 4.3 0.00 0.00 0.00 85 1014.8
20260505111917 54 230 0.9 2.6 0.00 0.00 0.00 85 1014.7
20260505111412 54 230 0.9 2.6 0.00 0.00 0.00 85 1014.8
20260505110909 54 208 0.9 1.7 0.00 0.00 0.00 86 1014.8
20260505110404 54 208 0.9 2.6 0.00 0.00 0.00 86 1014.7
20260505110127 54 208 0.9 2.6 0.00 0.00 0.00 85 1014.8
20260505101812 54 242 1.7 3.5 0.00 0.00 0.00 87 1014.6
20260505101253 54 240 1.7 2.6 0.00 0.00 0.00 87 1014.4
20260505100752 54 234 1.7 4.3 0.00 0.00 0.00 87 1014.4
20260505100252 54 242 2.6 4.3 0.00 0.00 0.00 87 1014.5
20260505100231 54 235 2.6 5.2 0.00 0.00 0.00 86 1014.5
20260505095244 54 265 2.6 5.2 0.00 0.00 0.00 87 1014.5
20260505094742 54 240 2.6 5.2 0.00 0.00 0.00 86 1014.6
20260505094240 54 227 3.5 5.2 0.00 0.00 0.00 86 1014.6
20260505093957 54 243 3.5 5.2 0.00 0.00 0.00 86 1014.4
20260505093237 54 233 3.5 7.0 0.00 0.00 0.00 86 1014.5
20260505092729 54 219 4.3 7.0 0.00 0.00 0.00 86 1014.5
20260505092229 54 232 3.5 7.0 0.00 0.00 0.00 86 1014.4
20260505091728 54 233 2.6 5.2 0.00 0.00 0.00 86 1014.4
20260505091225 54 209 2.6 5.2 0.00 0.00 0.00 86 1014.4
20260505090945 54 206 1.7 5.2 0.00 0.00 0.00 86 1014.4
20260505090224 54 206 1.7 3.5 0.00 0.00 0.00 86 1014.6
20260505085713 54 223 2.6 4.3 0.00 0.00 0.00 86 1014.4
20260505085214 54 223 2.6 4.3 0.00 0.00 0.00 86 1014.5
20260505084716 54 227 3.5 4.3 0.00 0.00 0.00 85 1014.5
20260505084213 54 229 2.6 4.3 0.00 0.00 0.00 85 1014.5
20260505083714 54 242 2.6 5.2 0.00 0.00 0.00 85 1014.4
20260505083214 54 192 1.7 5.2 0.00 0.00 0.00 85 1014.4
20260505082714 54 229 1.7 3.5 0.00 0.00 0.00 86 1014.5
20260505082204 54 229 1.7 3.5 0.00 0.00 0.00 85 1014.6
20260505081659 54 210 2.6 3.5 0.00 0.00 0.00 85 1014.6
20260505081159 54 231 2.6 4.3 0.00 0.00 0.00 85 1014.5
20260505080917 54 235 2.6 6.1 0.00 0.00 0.00 85 1014.6
20260505080158 54 212 3.5 6.1 0.00 0.00 0.00 85 1014.6
20260505075659 54 211 3.5 7.0 0.00 0.00 0.00 85 1014.6
20260505075422 54 245 3.5 7.0 0.00 0.00 0.00 85 1014.7
20260505074658 54 236 5.2 9.6 0.00 0.00 0.00 85 1014.6
20260505074420 54 227 5.2 9.6 0.00 0.00 0.00 85 1014.6
20260505073656 54 215 4.3 7.8 0.00 0.00 0.00 85 1014.7
20260505073157 55 216 5.2 9.6 0.00 0.00 0.00 85 1014.6
20260505072653 55 217 5.2 9.6 0.00 0.00 0.00 84 1014.7
20260505072407 55 224 4.3 7.8 0.00 0.00 0.00 84 1014.6
20260505071650 55 229 5.2 9.6 0.00 0.00 0.00 84 1014.6
20260505071154 55 241 6.1 9.6 0.00 0.00 0.00 84 1014.6
20260505070651 55 226 6.1 9.6 0.00 0.00 0.00 84 1014.5
20260505070148 55 233 7.0 11.3 0.00 0.00 0.00 84 1014.5
20260505065651 55 237 7.0 11.3 0.00 0.00 0.00 84 1014.6
20260505065406 55 220 6.1 9.6 0.00 0.00 0.00 84 1014.5
20260505064647 55 254 5.2 8.7 0.00 0.00 0.00 84 1014.5
20260505064145 55 229 5.2 9.6 0.00 0.00 0.00 84 1014.4
20260505063646 55 236 6.1 9.6 0.00 0.00 0.00 84 1014.4
20260505063625 55 249 6.1 10.4 0.00 0.00 0.00 84 1014.4
20260505062623 55 220 7.0 10.4 0.00 0.00 0.00 84 1014.4
20260505062109 55 215 6.1 9.6 0.00 0.00 0.00 83 1014.5
20260505061600 55 237 5.2 8.7 0.00 0.00 0.00 83 1014.4
20260505061540 55 235 4.3 7.8 0.00 0.00 0.00 83 1014.5
20260505060559 55 254 6.1 11.3 0.00 0.00 0.00 83 1014.5
20260505060055 55 246 6.1 11.3 0.00 0.00 0.00 83 1014.4
20260505055557 55 236 5.2 9.6 0.00 0.00 0.00 83 1014.4
20260505055054 55 222 5.2 9.6 0.00 0.00 0.00 83 1014.4
20260505054551 55 243 5.2 9.6 0.00 0.00 0.00 83 1014.3
20260505054050 55 231 5.2 9.6 0.00 0.00 0.00 83 1014.4
20260505053551 55 216 5.2 8.7 0.00 0.00 0.00 83 1014.3
20260505053051 55 245 6.1 9.6 0.00 0.00 0.00 83 1014.2
20260505052814 55 249 6.1 10.4 0.00 0.00 0.00 83 1014.2
20260505052049 55 223 5.2 10.4 0.00 0.00 0.00 83 1014.3
20260505051547 55 225 6.1 8.7 0.00 0.00 0.00 83 1014.4
20260505051047 55 248 6.1 8.7 0.00 0.00 0.00 83 1014.3
20260505051036 55 217 6.1 8.7 0.00 0.00 0.00 83 1014.2
20260505050307 55 233 6.1 10.4 0.00 0.00 0.00 83 1014.1
20260505041539 55 220 6.1 12.2 0.00 0.00 0.00 83 1013.6
20260505041038 55 233 6.1 9.6 0.00 0.00 0.00 83 1013.5
20260505040537 55 226 7.0 9.6 0.00 0.00 0.00 83 1013.5
20260505040038 55 222 6.1 9.6 0.00 0.00 0.00 83 1013.3
20260505035537 55 225 6.1 9.6 0.00 0.00 0.00 83 1013.1
20260505035038 55 233 6.1 10.4 0.00 0.00 0.00 83 1013.3
20260505034536 55 172 6.1 10.4 0.00 0.00 0.00 83 1013.1
20260505034035 55 194 5.2 10.4 0.00 0.00 0.00 83 1013.1
20260505033534 56 189 5.2 10.4 0.00 0.00 0.00 83 1013.0
20260505033032 56 227 5.2 10.4 0.00 0.00 0.00 82 1013.0
20260505032536 56 253 6.1 9.6 0.00 0.00 0.00 82 1012.9
20260505032034 56 232 6.1 11.3 0.00 0.00 0.00 81 1012.9
20260505031533 57 221 6.1 11.3 0.00 0.00 0.00 81 1012.8
20260505031032 57 229 6.1 9.6 0.00 0.00 0.00 80 1012.8
20260505030531 57 238 7.0 11.3 0.00 0.00 0.00 80 1012.6
20260505030032 58 228 7.0 11.3 0.00 0.00 0.00 79 1012.5
20260505025531 58 236 6.1 11.3 0.00 0.00 0.00 79 1012.5
20260505025030 58 241 6.1 11.3 0.00 0.00 0.00 79 1012.4
20260505024531 58 223 6.1 9.6 0.00 0.00 0.00 78 1012.3
20260505024026 59 216 5.2 9.6 0.00 0.00 0.00 78 1012.2
20260505023525 59 216 5.2 8.7 0.00 0.00 0.00 78 1012.2
20260505023244 59 212 6.1 12.2 0.00 0.00 0.00 78 1012.2
20260505022524 59 259 7.8 12.2 0.00 0.00 0.00 77 1012.1
20260505022019 60 230 8.7 12.2 0.00 0.00 0.00 76 1012.1
20260505021519 60 230 7.8 13.0 0.00 0.00 0.00 76 1012.1
20260505021012 60 227 7.8 13.0 0.00 0.00 0.00 75 1012.1
20260505020510 61 218 7.0 11.3 0.00 0.00 0.00 75 1012.1
20260505020011 61 224 7.0 11.3 0.00 0.00 0.00 75 1012.1
20260505015511 61 231 7.8 14.8 0.00 0.00 0.00 75 1012.1
20260505015007 61 236 7.8 14.8 0.00 0.00 0.00 74 1012.2
20260505014507 62 260 8.7 13.9 0.00 0.00 0.00 74 1012.1
20260505013958 62 229 9.6 14.8 0.00 0.00 0.00 74 1012.2
20260505013457 62 211 9.6 14.8 0.00 0.00 0.00 73 1012.2
20260505013000 62 233 9.6 14.8 0.00 0.00 0.00 72 1012.0
20260505012456 63 270 9.6 14.8 0.00 0.00 0.00 72 1012.2
20260505011956 63 241 10.4 13.9 0.00 0.00 0.00 72 1012.1
20260505011719 63 237 9.6 13.9 0.00 0.00 0.00 72 1012.2
20260505010954 64 231 8.7 13.9 0.00 0.00 0.00 71 1012.1
20260505010454 64 221 8.7 14.8 0.00 0.00 0.00 70 1012.2
20260505005952 64 261 8.7 14.8 0.00 0.00 0.00 71 1012.1
20260505005452 64 232 8.7 13.9 0.00 0.00 0.00 70 1012.3
20260505004952 65 230 8.7 13.9 0.00 0.00 0.00 70 1012.2
20260505004448 65 275 8.7 15.6 0.00 0.00 0.00 69 1012.2
20260505003950 65 226 9.6 16.5 0.00 0.00 0.00 70 1012.3
20260505003708 65 243 9.6 16.5 0.00 0.00 0.00 69 1012.2
20260505003215 65 243 8.7 14.8 0.00 0.00 0.00 70 1012.1
20260505002448 66 249 8.7 14.8 0.00 0.00 0.00 68 1012.0
20260505001946 66 250 8.7 14.8 0.00 0.00 0.00 68 1012.1
20260505001445 67 243 8.7 13.9 0.00 0.00 0.00 68 1012.1
20260505000946 67 250 8.7 13.9 0.00 0.00 0.00 66 1012.1
20260505000444 67 251 7.0 13.0 0.00 0.00 0.00 68 1012.1
20260504235941 67 251 7.8 15.6 0.00 0.00 0.00 68 1012.2
20260504235702 67 244 9.6 15.6 0.00 0.00 0.00 67 1012.2
20260504234942 67 225 8.7 14.8 0.00 0.00 0.00 67 1012.3
20260504234441 67 223 7.8 13.9 0.00 0.00 0.00 67 1012.1
20260504233939 67 235 7.0 13.9 0.00 0.00 0.00 67 1012.1
20260504233442 68 252 7.0 11.3 0.00 0.00 0.00 67 1012.1
20260504232939 68 231 7.8 12.2 0.00 0.00 0.00 67 1012.2
20260504232436 68 256 7.8 12.2 0.00 0.00 0.00 67 1012.2
20260504232159 68 238 7.8 13.0 0.00 0.00 0.00 68 1012.2
20260504231433 68 226 7.8 13.0 0.00 0.00 0.00 67 1012.4